www.pogodaiklimat.ru

Погода и климат >> Архив погоды >> Норвегия >> Utsira Fyr


ПОГОДА в Utsira Fyr

  • Прогноз погоды в Utsira Fyr
  • Монитор погоды в Utsira Fyr
  • Климат города

АРХИВ ПОГОДЫ в Utsira Fyr

Время (UTC), дата Ветер
(напр.,м/с)
 
Видим.   Явления Облачность Т
(С)
Тd
(С)
f
(%)
Тe
(С)
Тes
(С)
Комфортность P
(гПа)
Po
(гПа)
Тmin
(С)
Tmax
(С)
R
(мм)
R24
(мм)
S
(см)
05 19.06 ЮЗ 3
{4}
н/о н/о +12.6 +11.0 90 +11 +11 1020.5 1013.7
04 19.06 З 2
{4}
н/о н/о +12.3 +10.7 90 +11 +11 1020.5 1013.7
06 19.06 ЮЗ 3
{5}
12 км {дождь} 10/9 600 м
[Sc As trans]
+12.7 +11.1 90 +11 +11 1020.4 1013.6 +11.5 +13.5
07 19.06 ЮЗ 3
{4}
н/о н/о +13.1 +11.5 90 +12 +12 1020.1 1013.3
08 19.06 ЮЗ 3
{5}
н/о н/о +13.0 +11.2 89 +12 +12 1019.9 1013.1
09 19.06 Ю 4
{5}
10 км 10/8 600 м
[Sc As trans]
+12.8 +10.7 87 +11 +12 1019.3 1012.5
11 19.06 Ю 3
{7}
н/о н/о +12.3 +10.7 90 +11 +11 1018.1 1011.3 0.6
10 19.06 ЮЗ 3
{5}
н/о н/о +12.8 +11.2 90 +11 +11 1019.1 1012.3 0.7
12 19.06 СЗ 1
{7}
15 км в посл. час дождь 10/8 300 м
[Sc As trans]
+12.6 +10.8 89 +13 +14 1017.7 1010.9
13 19.06 С 4
{5}
н/о н/о +11.8 +10.4 91 +10 +10 1016.7 1009.9 0.4
14 19.06 СВ 5
{6}
н/о н/о +11.4 +10.2 92 +9 +9 1015.8 1009.0 0.1
15 19.06 С 8
{10}
4000 м дождь 10/9 200 м
[Frnb As op]
+11.1 +10.0 93 +7 +7 1015.6 1008.8 3
17 19.06 СВ 6
{10}
н/о н/о +11.0 +9.1 88 +8 +8 1015.3 1008.5
16 19.06 СВ 7
{11}
н/о н/о +11.1 +9.5 90 +8 +8 1015.2 1008.4
18 19.06 С 8
{11}
30 км в посл. час ливневой дождь 9/6 300 м
[Cu med, cong Ac As]
+11.3 +8.7 84 +8 +8 1015.8 1009.0 +10.8 +13.2
19 19.06 СЗ 7
{10}
н/о н/о +11.2 +8.4 83 +8 +8 1016.3 1009.5
20 19.06 СЗ 6
{8}
н/о н/о +11.2 +8.4 83 +8 +8 1016.6 1009.8
21 19.06 СЗ 6
{8}
25 км 8/5 600 м
[Cu med, cong Ac As]
+11.3 +8.9 85 +8 +8 1016.6 1009.8
23 19.06 СЗ 9
{12}
н/о н/о +11.5 +8.5 82 +8 +8 1016.5 1009.7
22 19.06 З 9
{10}
н/о н/о +11.7 +9.1 84 +8 +8 1016.5 1009.7
00 20.06 СЗ 9
{12}
н/о н/о +11.4 +8.1 80 +8 +8 1016.5 1009.7
01 20.06 З 11
{13}
н/о н/о +11.5 +8.2 80 +7 +7 1016.3 1009.5
02 20.06 СЗ 11
{14}
н/о н/о +11.4 +7.7 78 +7 +7 1016.4 1009.6
03 20.06 СЗ 10
{14}
н/о н/о +11.2 +7.3 77 +7 +7 1016.4 1009.6
05 20.06 СЗ 8
{12}
н/о н/о +11.5 +7.2 75 +8 +8 1016.6 1009.8
04 20.06 СЗ 10
{14}
н/о н/о +11.0 +6.8 75 +7 +7 1016.5 1009.7
06 20.06 СЗ 9
{14}
30 км 6/6 600 м
[Cu med, cong]
+11.7 +7.4 75 +8 +8 1016.9 1010.1 +11.0 +11.8
07 20.06 СЗ 7
{14}
н/о н/о +10.8 +8.4 85 +7 +7 1017.2 1010.4 0.2
08 20.06 СЗ 8
{10}
н/о н/о +12.0 +8.5 79 +9 +9 1017.3 1010.5
09 20.06 СЗ 9
{12}
30 км {ливн. осадки} 6/6 600 м
[Cu med, cong]
+12.4 +8.5 77 +9 +10 1017.5 1010.7
11 20.06 СЗ 9
{12}
н/о н/о +12.9 +8.4 74 +10 +10 1018.3 1011.5
10 20.06 СЗ 9
{12}
н/о н/о +12.4 +8.1 75 +9 +9 1017.8 1011.0
12 20.06 СЗ 9
{14}
25 км слабый ливневой дождь 9/9 300 м
[Cb calv]
+12.4 +7.9 74 +9 +9 1018.4 1011.6
13 20.06 СЗ 8
{13}
н/о н/о +12.8 +8.5 75 +10 +10 1018.7 1011.9
14 20.06 СЗ 9
{12}
н/о н/о +12.8 +7.9 72 +10 +10 1018.9 1012.1
15 20.06 СЗ 9
{14}
25 км в посл. час ливневой дождь 9/9 600 м
[Cu Sc]
+12.5 +8.2 75 +9 +9 1019.2 1012.4
17 20.06 СЗ 8
{11}
н/о н/о +12.3 +7.8 74 +9 +9 1019.2 1012.4
16 20.06 СЗ 9
{15}
н/о н/о +12.0 +7.3 73 +9 +9 1019.2 1012.4
18 20.06 СЗ 7
{15}
25 км {ливн. осадки} 9/9 600 м
[Cu Sc]
+12.0 +8.1 77 +9 +9 1019.3 1012.5 +10.8 +13.2
19 20.06 СЗ 8
{11}
н/о н/о +11.7 +7.8 77 +8 +8 1019.3 1012.5
20 20.06 С 8
{10}
н/о н/о +11.5 +7.4 76 +8 +8 1019.5 1012.7
21 20.06 С 8
{9}
30 км 8/6 600 м
[Sc diur, vesp Ac trans]
+11.4 +6.9 74 +8 +8 1019.4 1012.6
23 20.06 С 6
{10}
н/о н/о +10.7 +5.1 68 +8 +8 1019.6 1012.7
22 20.06 С 8
{10}
н/о н/о +10.8 +6.2 73 +7 +7 1019.3 1012.5
00 21.06 С 6
{11}
н/о н/о +10.7 +5.9 72 +8 +8 1020.0 1013.1
01 21.06 С 6
{7}
н/о н/о +10.6 +6.0 73 +7 +7 1019.9 1013.0
02 21.06 С 5
{7}
н/о н/о +10.6 +6.4 75 +8 +8 1019.5 1012.6
03 21.06 СЗ 4
{7}
н/о н/о +10.5 +6.5 76 +8 +8 1019.5 1012.6
05 21.06 С 5
{7}
н/о н/о +10.3 +6.8 79 +7 +7 1019.4 1012.5
04 21.06 С 7
{8}
н/о н/о +10.1 +7.4 83 +6 +6 1019.5 1012.6
06 21.06 СВ 2
{8}
30 км 8/6 600 м
[Cu Sc Ac trans]
+10.8 +7.1 78 +10 +10 1019.3 1012.5 +9.8 +12.0
07 21.06 С 4
{5}
н/о н/о +11.4 +5.9 69 +9 +9 1019.1 1012.3
08 21.06 С 5
{7}
н/о н/о +11.1 +6.1 71 +8 +8 1019.1 1012.3
09 21.06 С 3
{5}
30 км 4/3 600 м
[Cu Sc Ci sp]
+12.5 +6.8 68 +11 +17 1019.0 1012.2
11 21.06 С 4
{6}
н/о н/о +13.3 +6.7 64 +12 +12 1018.2 1011.4
10 21.06 С 3
{5}
н/о н/о +13.1 +7.1 67 +12 +12 1018.6 1011.8
12 21.06 СЗ 3
{7}
30 км 5/1 600 м
[Cu hum Ci sp]
+13.6 +6.9 64 +13 +22 1017.9 1011.1
13 21.06 СЗ 4
{5}
н/о н/о +13.4 +6.3 62 +12 +12 1017.6 1010.8
14 21.06 СЗ 3
{5}
н/о н/о +13.5 +6.4 62 +12 +12 1017.1 1010.3
15 21.06 СЗ 3
{5}
40 км 3/1 1000 м
[Cu hum Ci sp]
+13.2 +6.8 65 +12 +19 1016.6 1009.8
17 21.06 З 2
{5}
н/о н/о +12.8 +6.4 65 +12 +12 1015.6 1008.8
16 21.06 З 3
{5}
н/о н/о +13.1 +6.9 66 +12 +12 1016.2 1009.4
18 21.06 СЗ 2
{5}
20 км 5/0
[Ac trans Cc]
+12.5 +6.3 66 +12 +13 1015.0 1008.2 +10.8 +13.8
19 21.06 З 1
{3}
н/о н/о +11.9 +6.2 68 +12 +12 1014.5 1007.7
20 21.06 Ю 2
{2}
н/о н/о +11.5 +6.2 70 +11 +11 1013.9 1007.1
21 21.06 ЮЗ 3
{5}
25 км 9/6 600 м
[Sc Ac As]
+11.5 +6.6 72 +10 +10 1013.8 1007.0
23 21.06 Ю 4
{6}
н/о н/о +11.2 +8.8 85 +9 +9 1013.0 1006.2
22 21.06 ЮЗ 4
{5}
н/о н/о +11.5 +7.4 76 +9 +9 1013.2 1006.4
00 22.06 ЮВ 4
{6}
н/о н/о +11.2 +9.0 86 +9 +9 1011.6 1004.8
01 22.06 ЮВ 5
{7}
н/о н/о +11.1 +9.4 89 +8 +8 1011.0 1004.2
02 22.06 ЮВ 6
{8}
н/о н/о +10.7 +9.0 89 +7 +7 1010.5 1003.7 0.1
03 22.06 ЮВ 7
{10}
н/о н/о +10.2 +8.5 89 +6 +6 1009.8 1003.0 0.3
05 22.06 ЮВ 7
{12}
н/о н/о +10.3 +9.1 92 +7 +7 1008.1 1001.3 0.1
04 22.06 ЮВ 8
{11}
н/о н/о +10.0 +8.6 91 +6 +6 1008.7 1001.9 0.1
06 22.06 ЮВ 7
{12}
4000 м слабый дождь 10/0
[As op]
+10.5 +9.4 93 +7 +7 1008.2 1001.4 +10.0 +12.5 0.3
07 22.06 Ю 9
{11}
н/о н/о +11.1 +10.2 94 +7 +7 1007.8 1001.0 0.2
08 22.06 Ю 9
{12}
н/о н/о +11.8 +10.9 94 +8 +8 1007.3 1000.6 0.9
09 22.06 Ю 7
{11}
15 км в посл. час дождь 10/10 300 м
[St]
+12.3 +11.4 94 +9 +9 1007.1 1000.4
11 22.06 Ю 6
{9}
н/о н/о +12.6 +11.7 94 +10 +10 1007.1 1000.4 2
10 22.06 Ю 7
{10}
н/о н/о +12.5 +11.6 94 +10 +10 1007.1 1000.4
12 22.06 Ю 6
{12}
10 км в посл. час дождь 10/10 200 м
[St]
+12.7 +11.8 94 +10 +10 1007.1 1000.4 0.1
13 22.06 Ю 5
{8}
н/о н/о +12.9 +12.0 94 +11 +11 1007.2 1000.5 0.1
14 22.06 Ю 5
{7}
н/о н/о +13.0 +12.2 95 +11 +11 1007.0 1000.3 0.1
15 22.06 Ю 4
{7}
5000 м слабая морось {дождь} 10/10 200 м
[St]
+13.1 +12.3 95 +11 +11 1006.7 1000.0 0.1
17 22.06 ЮЗ 3
{6}
н/о н/о +13.2 +12.4 95 +12 +12 1006.3 999.6
16 22.06 ЮЗ 5 н/о н/о +13.0 +12.2 95 +11 +11 1006.6 999.9 0.1
18 22.06 ЮЗ 3
{8}
7000 м дымка {дождь, морось} 10/10 200 м
[St]
+13.1 +12.3 95 +12 +12 1006.3 999.6 +10.5 +13.2
19 22.06 ЮЗ 3
{4}
н/о н/о +13.1 +12.3 95 +12 +12 1006.0 999.3 0.1
20 22.06 С 3
{4}
н/о н/о +12.9 +12.1 95 +11 +11 1006.1 999.4 0.1
21 22.06 С 3
{4}
1200 м слабая морось {туман} 10/10 <50 м
[St]
+12.8 +12.0 95 +11 +11 1006.1 999.4
23 22.06 С 2
{3}
н/о н/о +12.7 +12.1 96 +12 +12 1005.6 998.9
22 22.06 СВ 3
{4}
н/о н/о +12.7 +12.1 96 +11 +11 1005.8 999.1
00 23.06 С 3
{4}
н/о н/о +12.7 +12.1 96 +11 +11 1005.6 998.9
01 23.06 С 3
{5}
н/о н/о +12.4 +11.8 96 +11 +11 1005.3 998.6 0.1
02 23.06 С 3
{4}
н/о н/о +12.3 +11.7 96 +11 +11 1005.2 998.5
03 23.06 СЗ 3
{4}
н/о н/о +12.2 +11.6 96 +10 +10 1005.1 998.4
05 23.06 З 1
{5}
н/о н/о +11.9 +11.1 95 +12 +12 1004.4 997.7 0.1
04 23.06 СЗ 4
{6}
н/о н/о +11.7 +11.1 96 +9 +9 1004.9 998.2
06 23.06 ЮЗ 4
{6}
15 км {морось, туман} 10/10 300 м
[Cu Sc]
+12.2 +11.1 93 +10 +10 1004.6 997.9 +11.7 +13.1
07 23.06 ЮЗ 4
{5}
н/о н/о +12.3 +11.0 92 +10 +10 1004.4 997.7 0.4
08 23.06 ЮЗ 5
{6}
н/о н/о +12.2 +10.9 92 +10 +10 1004.5 997.8 1
09 23.06 ЮЗ 5
{6}
10 км слабый дождь 10/8 300 м
[Frnb As op]
+11.8 +10.6 92 +9 +9 1004.3 997.6 0.8
11 23.06 Ю 7
{11}
н/о н/о +12.3 +11.2 93 +9 +9 1003.9 997.2 0.7
10 23.06 Ю 6
{7}
н/о н/о +11.9 +10.6 92 +9 +9 1004.1 997.4 0.9
12 23.06 Ю 7
{11}
20 км в посл. час дождь 10/5 300 м
[Frnb As op]
+12.7 +11.4 92 +10 +10 1003.6 996.9
13 23.06 Ю 9
{12}
н/о н/о +12.9 +11.6 92 +10 +10 1003.0 996.3
14 23.06 ЮЗ 9
{12}
н/о н/о +12.6 +11.5 93 +9 +9 1002.7 996.0 1
15 23.06 ЮЗ 8
{11}
5000 м слабый дождь 10/9 200 м
[Frnb As op]
+12.9 +12.0 94 +10 +10 1002.4 995.7 0.3
17 23.06 З 8
{13}
н/о н/о +12.9 +12.1 95 +10 +10 1002.4 995.7 0.2
16 23.06 ЮЗ 8
{10}
н/о н/о +12.9 +12.1 95 +10 +10 1002.3 995.6 0.2
18 23.06 З 7
{13}
15 км {дождь} 8/5 600 м
[Sc Ac As]
+13.3 +12.2 93 +11 +11 1002.7 996.0 +11.7 +13.4
19 23.06 З 8
{11}
н/о н/о +12.6 +10.5 87 +10 +10 1003.2 996.5
20 23.06 З 7
{11}
н/о н/о +12.3 +9.9 85 +9 +9 1003.8 997.1
21 23.06 З 7
{10}
25 км 5/0
[Ac cast Ci sp]
+11.9 +9.1 83 +9 +9 1004.1 997.4
23 23.06 З 6
{9}
н/о н/о +11.6 +9.0 84 +9 +9 1004.2 997.5
22 23.06 З 7
{9}
н/о н/о +11.8 +8.5 80 +9 +9 1004.3 997.6
00 24.06 З 6
{11}
н/о н/о +11.4 +8.4 82 +8 +8 1004.0 997.3
01 24.06 З 6
{7}
н/о н/о +11.4 +7.7 78 +8 +8 1004.0 997.3
02 24.06 ЮЗ 4
{7}
н/о н/о +11.6 +8.6 82 +9 +9 1003.2 996.5
03 24.06 ЮЗ 3
{5}
н/о н/о +11.3 +8.7 84 +9 +9 1002.6 995.9
05 24.06 ЮЗ 5
{11}
н/о н/о +11.4 +8.8 84 +9 +9 1001.7 995.0
04 24.06 ЮЗ 5
{6}
н/о н/о +11.8 +9.0 83 +9 +9 1002.1 995.4
06 24.06 ЮЗ 7
{11}
20 км {ливн. осадки} 9/5 300 м
[Cb calv Ac As]
+12.0 +9.4 84 +9 +9 1001.1 994.4 +11.2 +13.3
07 24.06 З 5
{13}
н/о н/о +11.0 +8.1 82 +8 +8 1001.0 994.3 2
08 24.06 ЮЗ 6
{10}
н/о н/о +12.7 +10.6 87 +10 +10 1000.8 994.1
09 24.06 З 8
{12}
20 км {ливн. осадки} 6/6 600 м
[Cb cap]
+12.9 +6.9 67 +10 +11 1000.6 993.9
11 24.06 З 7
{9}
н/о н/о +13.4 +7.8 69 +11 +11 1001.0 994.3
10 24.06 З 6
{10}
н/о н/о +13.2 +7.9 70 +11 +11 1000.8 994.1
12 24.06 З 7
{13}
30 км {ливн. осадки} 5/4 600 м
[Cu med, cong Ac As]
+13.4 +8.1 70 +11 +13 1000.9 994.2
13 24.06 З 9
{10}
н/о н/о +13.8 +8.0 68 +11 +11 1001.0 994.3
14 24.06 З 9
{12}
н/о н/о +13.9 +8.1 68 +11 +11 1001.1 994.4
15 24.06 З 10
{13}
30 км 4/4 600 м
[Cb cap]
+12.2 +6.9 70 +9 +9 1000.8 994.1
17 24.06 З 8
{12}
н/о н/о +13.0 +7.3 68 +10 +10 999.9 993.2
16 24.06 З 9
{10}
н/о н/о +13.6 +7.4 66 +11 +11 1000.4 993.7
18 24.06 ЮЗ 9
{13}
30 км 8/5 600 м
[Cu Sc Ac As]
+12.8 +7.7 71 +10 +10 999.3 992.6 +11.0 +14.1
19 24.06 ЮЗ 10
{13}
н/о н/о +12.8 +8.5 75 +10 +10 998.5 991.8
20 24.06 ЮЗ 11
{14}
н/о н/о +12.5 +9.2 80 +9 +9 997.7 991.0 0.1
21 24.06 ЮЗ 11
{19}
4000 м ливневой дождь 9/8 300 м
[Cb cap Ac inh]
+10.1 +7.7 85 +5 +5 997.2 990.5 12
23 24.06 ЮЗ 12
{16}
н/о н/о +12.3 +7.2 71 +9 +9 996.1 989.4
22 24.06 ЮЗ 11
{15}
н/о н/о +11.5 +8.5 82 +7 +7 996.9 990.2
00 25.06
{19}
н/о н/о +10.6 +7.3 80 995.6 988.9 0.7
01 25.06 н/о н/о +10.3 +6.3 76 994.8 988.1 0.3
02 25.06 н/о н/о +11.6 +8.1 79 994.3 987.6 0.4
03 25.06 н/о н/о +11.7 +7.8 77 993.6 986.9
05 25.06 н/о н/о +10.9 +8.5 85 992.4 985.7 1
04 25.06 н/о н/о +11.5 +8.0 79 993.1 986.4 0.2
06 25.06 10 км слабый ливневой дождь {гроза} 9/9 300 м
[Cb cap]
+10.7 +8.5 86 992.1 985.4 +9.7 +12.8 1
07 25.06 н/о н/о +11.5 +8.9 84 991.7 985.1 0.5
08 25.06 н/о н/о +12.0 +8.7 80 991.8 985.2 0.6
09 25.06 15 км в посл. час ливневой дождь 8/8 1000 м
[Cb cap]
+11.9 +8.6 80 991.8 985.2 0.2
11 25.06 н/о н/о +12.6 +9.3 80 992.5 985.9
10 25.06 н/о н/о +12.0 +9.6 85 992.1 985.5 0.3
12 25.06 20 км слабый ливневой дождь 6/6 300 м
[Cb calv Ac As]
+12.4 +9.4 82 992.8 986.2 0.4
13 25.06 н/о н/о +12.6 +9.4 81 993.1 986.5 0.4
14 25.06 н/о н/о +12.1 +9.0 81 993.6 987.0
15 25.06 20 км {ливн. осадки} 6/6 300 м
[Cu med, cong]
+12.7 +9.0 78 994.0 987.4 0.2
17 25.06 н/о н/о +11.8 +9.5 86 994.8 988.1
16 25.06 н/о н/о +12.1 +8.4 78 994.3 987.7
18 25.06 20 км в посл. час ливневой дождь 9/6 300 м
[Cb calv Ac As]
+11.8 +8.7 81 995.9 989.2 +10.6 +13.2
19 25.06 н/о н/о +11.8 +8.3 79 996.7 990.0
20 25.06 н/о н/о +11.8 +9.0 83 997.3 990.6
21 25.06 20 км 9/8 300 м
[Cu med, cong Ac As]
+11.6 +8.6 82 998.2 991.5
23 25.06 н/о н/о +11.2 +7.5 78 1000.3 993.6
22 25.06 н/о н/о +11.3 +8.0 80 999.3 992.6
00 26.06 н/о н/о +11.0 +7.5 79 1001.1 994.4
01 26.06 н/о н/о +10.9 +7.6 80 1001.8 995.1
02 26.06 н/о н/о +10.9 +7.8 81 1002.3 995.6

 

Местоположение метеостанции Utsira Fyr (Норвегия): широта 59.31 долгота 4.88 высота над уровнем моря 55 м.

В архиве по умолчанию представлена погода в Utsira Fyr за последнюю неделю. Архивные данные за месяц целиком и за предыдущие месяцы, начиная с января 2011 года, Вы можете получить, выбрав интересующий диапазон дат из раскрывающегося списка и нажав кнопку "Ввод!".

Внимание! Время в таблицах - всемирное. Для получения местного времени необходимо прибавить поправку, которая в Utsira Fyr равна 1 ч.

Смотрите также архив погоды в соседних городах и на ближайших метеорологических станциях:

Погода в Rovaer (Норвегия) (18 км)
Погода в Haugesund Lufthavn (Норвегия) (19 км)
Погода в Kvitsoy (Норвегия) (41 км)
Погода в Vats I Vindafjord (Норвегия) (52 км)
Погода в Stavanger (Норвегия) (62 км)
Погода в Stavanger Lufthavn (Норвегия) (65 км)
Погода в Fister-Sigmundstad (Норвегия) (67 км)
Погода в Slatteroy Fyr (Норвегия) (68 км)
Погода в Saerheim (Норвегия) (75 км)
Погода в Liarvatn (Норвегия) (76 км)

Пояснения к столбцам:

Ветер - указаны скорость ветра в м/с - средняя за 10 мин, порывы в срок и между сроками (в фигурных скобках) и направление, откуда дует ветер: С - северный, СВ - северо-восточный, В - восточный, ЮВ - юго-восточный, Ю - южный, ЮЗ - юго-западный, З - западный, СЗ - северо-западный.
Видимость - горизонтальная дальность видимости в метрах или километрах. При видимости от 1 до 10 км при отсутствии осадков обычно наблюдается дымка, при ухудшении видимости до 1 км и менее - туман. В сухую погоду видимость может ухудшаться дымом, пылью или мглою.
Явления - указаны атмосферные явления, наблюдавшиеся в срок или в последний час перед сроком; фигурными скобками обозначены явления, наблюдавшиеся между сроками (за 1-3 часа до срока); квадратными скобками обозначены град или гололедные отложения с указанием их диаметра в мм.
Облачность - указаны через наклонную черту общая и нижняя облачность в баллах и высота нижней границы облаков в метрах; квадратными скобками обозначены формы облаков: Ci - перистые, Cs - перисто-слоистые, Cc - перисто-кучевые, Ac - высококучевые, As - высокослоистые, Sc - слоисто-кучевые, Ns - слоисто-дождевые, Cu - кучевые, Cb - кучево-дождевые. Подробнее классификацию облаков см. в Атласе облаков (PDF).
T - Температура воздуха - температура, измеренная на высоте 2 м над землей.
Td - Температура точки росы - температура, при понижении до которой содержащийся в воздухе водяной пар достигнет насыщения.
f - Относительная влажность воздуха - влажноcть воздуха, измеренная на высоте 2 м над землей.
Te - Эффективная температура - температура, которую ощущает одетый по сезону человек в тени. Характеристика душности погоды. При расчете учитывается влияние влажности воздуха и скорости ветра на теплоощущения человека.
Tes - Эффективная температура на солнце - температура, которую ощущает человек, с поправкой на солнечный нагрев. Характеристика знойности погоды. Зависит от высоты солнца над горизонтом, облачности и скорости ветра. Ночью, в пасмурную погоду, а также при ветре 12 м/с и более поправка равна нулю.
P - Атмосферное давление - приведенное к уровню моря атмосферное давление.
Po - Атмосферное давление - измеренное на уровне метеостанции атмосферное давление.
Tmin - Минимальная температура - минимум температуры воздуха на высоте 2 м над землей.
Tmax - Максимальная температура - максимум температуры воздуха на высоте 2 м над землей.
R - Количество осадков - Количество выпавших осадков за период времени, мм. При наведении курсора мыши на число - период времени, за который выпало указанное количество осадков.
R24 - Количество осадков - Количество выпавших осадков за 24 часа, мм.
S - Снежный покров - Высота снежного покрова, см. При наведении курсора мыши на число - состояние снежного покрова и степень покрытия местности в баллах.